SCP
0 0 0 0 0 0 0 0 0 0 0 0 0 0 0 0 0 0 0 0 0 0 0 0 0 0 0 0 0 0 0 0 0 0 0 0 0 0 0 0 0 0 0
0 0 0 0 0 0 0 0 0 0 0 0 0 0 0 0 0 0 0 0 0 0 0 0 0 0 0 0 0 0 0 0 0 0 0 0 0 0 0 0 0 0 0
0 0 0 0 0 0 0 0 0 0 0 0 0 0 0 0 0 0 0 0 0 0 0 0 0 0 0 0 0 0 0 0 0 0 0 0 0 0 0 0 0 0 0
0 0 0 0 0 0 0 0 0 0 0 0 0 0 0 0 0 0 0 0 0 0 0 0 0 0 0 0 0 0 0 0 0 0 0 0 0 0 0 0 0 0 0
0 0 0 0 0 0 0 0 0 0 0 0 0 0 0 0 0 0 0 0 0 0 0 0 0 0 0 0 0 0 0 0 0 0 0 0 0 0 0 0 0 0 0
0 0 0 0 0 0 0 0 0 0 0 0 0 0 0 0 0 0 0 0 0 0 0 0 0 0 0 0 0 0 0 0 0 0 0 0 0 0 0 0 0 0 0
0 0 0 0 0 0 0 0 0 0 0 0 0 0 0 0 0 0 0 0 0 0 0 0 0 0 0 0 0 0 0 0 0 0 0 0 0 0 0 0 0 0 0
0 0 0 0 0 0 0 0 0 0 0 0 0 0 0 0 0 0 0 0 0 0 0 0 0 0 0 0 0 0 0 0 0 0 0 0 0 0 0 0 0 0 0
0 0 0 0 0 0 0 0 0 0 0 0 0 0 0 0 0 0 0 0 0 0 0 0 0 0 0 0 0 0 0 0 0 0 0 0 0 0 0 0 0 0 0
0 0 0 0 0 0 0 0 0 0 0 0 0 0 0 0 0 0 0 0 0 0 0 0 0 0 0 0 0 0 0 0 0 0 0 0 0 0 0 0 0 0 0
0 0 0 0 0 0 0 0 0 0 0 0 0 0 0 0 0 0 0 0 0 0 0 0 0 0 0 0 0 0 0 0 0 0 0 0 0 0 0 0 0 0 0
0 0 0 0 0 0 0 0 0 0 0 0 0 0 0 0 0 0 0 0 0 0 0 0 0 0 0 0 0 0 0 0 0 0 0 0 0 0 0 0 0 0 0
0 0 0 0 0 0 0 0 0 0 0 0 0 0 0 0 0 0 0 0 0 0 0 0 0 0 0 0 0 0 0 0 0 0 0 0 0 0 0 0 0 0 0
0 0 0 0 0 0 0 0 0 0 0 0 0 0 0 0 0 0 0 0 0 0 0 0 0 0 0 0 0 0 0 0 0 0 0 0 0 0 0 0 0 0 0
0 0 0 0 0 0 0 0 0 0 0 0 0 0 0 0 0 0 0 0 0 0 0 0 0 0 0 0 0 0 0 0 0 0 0 0 0 0 0 0 0 0 0
0 0 0 0 0 0 0 0 0 0 0 0 0 0 0 0 0 0 0 0 0 0 0 0 0 0 0 0 0 0 0 0 0 0 0 0 0 0 0 0 0 0 0
0 0 0 0 0 0 0 0 0 0 0 0 0 0 0 0 0 0 0 0 0 0 0 0 0 0 0 0 0 0 0 0 -0 0 0 0 0 0 0 0 0 0 0
0 0 0 0 0 0 0 0 0 0 0 0 0 0 0 0 0 0 0 0 0 0 0 0 0 0 0 0 0 0 0 0 0 0 0 0 0 0 0 0 0 0 0
0 0 0 0 0 0 0 0 0 0 0 0 0 0 0 0 0 0 0 0 0 0 0 0 0 0 0 0 0 0 0 0 0 0 0 0 0 0 0 0 0 0 0
0 0 0 0 0 0 0 0 0 0 0 0 0 0 0 0 0 0 0 0 0 0 0 0 0 0 0 0 0 0 0 0 0 0 0 0 0 0 0 0 0 0 0
0 0 0 0 0 0 0 0 0 0 0 0 0 0 0 0 0 0 0 0 0 0 0 0 0 0 0 0 0 0 0 0 0 0 0 0 0 0 0 0 0 0 0
0 0 0 0 0 0 0 0 0 0 0 0 0 0 0 0 0 0 0 0 0 0 0 0 0 0 0 0 0 0 0 0 0 0 0 0 0 0 0 0 0 0 0
0 0 0 0 0 0 0 0 0 0 0 0 0 0 0 0 0 0 0 0 0 0 0 0 0 0 0 0 0 0 0 0 0 0 0 0 0 0 0 0 0 0 0
0 0 0 0 0 0 0 0 0 0 0 0 0 0 0 0 0 0 0 0 0 0 0 0 0 0 0 0 0 0 0 0 0 0 0 0 0 0 0 0 0 0 0
0 0 0 0 0 0 0 0 0 0 0 0 0 0 0 0 0 0 0 0 0 0 0 0 0 0 0 0 0 0 0 0 0 0 0 0 0 0 0 0 0 0 0
0 0 0 0 0 0 0 0 0 0 0 0 0 0 0 0 0 0 0 0 0 0 0 0 0 0 0 0 0 0 0 0 0 0 0 0 0 0 0 0 0 0 0
Wind_Speed
6 6 6 7 7 7 8 10 9 7 8 9 10 10 11 12 11 12 12 10 13 13 13 14 16 13 11 10 9 8 9 9 11 4 4 5 11 11 10 9 8 9 8
5 6 7 7 6 7 10 10 8 8 8 9 9 10 11 11 11 12 13 11 12 14 14 14 15 12 15 11 10 12 11 10 9 7 5 5 8 10 10 10 8 7 6
5 6 7 7 8 9 10 9 7 8 8 8 9 10 11 11 11 12 12 11 12 12 12 13 13 13 15 12 12 12 10 8 6 5 5 4 3 6 8 6 6 5 6
5 6 7 9 9 9 8 7 7 7 8 8 9 10 10 10 10 10 10 10 10 10 10 10 11 12 13 12 11 11 9 8 7 6 5 5 4 5 7 6 6 5 5
5 6 8 8 7 7 7 7 7 7 8 8 8 8 8 8 8 9 9 9 9 9 9 9 9 11 13 11 9 9 10 9 8 8 7 6 6 7 9 6 6 4 4
5 7 7 7 7 7 7 7 6 7 7 6 7 7 8 7 10 14 11 8 8 8 9 8 8 9 11 15 16 15 14 12 11 9 8 9 10 8 7 7 6 5 5
7 7 6 6 7 7 6 6 6 6 6 6 6 6 7 9 12 12 13 8 7 7 7 7 6 5 7 7 11 15 15 18 16 10 10 10 10 10 10 9 8 6 5
8 8 7 6 7 6 5 6 6 4 5 5 5 6 5 6 9 10 10 7 6 6 6 6 6 5 6 7 6 6 6 7 10 7 7 7 7 9 10 8 7 5 2
8 8 7 6 7 6 6 6 4 4 4 3 3 4 4 5 7 7 7 3 4 5 4 5 5 5 8 11 7 7 6 5 9 10 9 10 12 14 11 7 6 4 3
8 9 8 7 6 6 6 5 3 3 3 2 1 1 2 2 3 5 5 2 3 2 2 2 4 6 8 11 7 7 7 6 6 7 8 9 9 11 14 9 7 5 3
8 8 8 7 6 5 4 3 2 1 1 1 1 1 1 1 2 3 3 2 3 2 2 1 2 7 9 11 9 6 7 6 6 6 5 5 5 5 6 6 6 5 5
7 7 7 6 5 3 3 2 1 1 2 1 1 1 2 2 2 2 2 2 4 3 2 2 3 7 8 9 7 7 9 7 4 5 4 4 5 5 4 4 5 4 3
7 7 6 5 3 2 2 1 0 1 1 1 1 1 1 2 2 3 2 1 5 3 2 5 5 6 5 4 5 6 5 4 4 4 5 4 4 4 3 3 2 2 3
7 7 5 4 3 2 1 0 0 1 1 1 1 1 1 1 2 2 1 1 3 3 2 2 3 3 3 2 2 3 2 3 3 4 3 3 3 3 3 3 3 3 2
7 6 4 3 2 1 0 0 0 0 1 2 1 1 1 1 1 1 2 2 2 3 4 2 1 1 1 1 1 1 1 2 2 2 2 3 3 3 3 3 3 3 3
6 5 3 2 2 1 1 2 5 5 6 6 5 3 2 2 3 4 4 5 6 8 5 2 2 1 1 1 1 1 1 1 1 1 2 3 3 3 3 2 2 3 3
7 5 3 3 2 2 2 2 3 5 9 10 9 8 7 7 7 6 7 8 7 6 4 3 2 2 1 1 1 1 0 0 0 1 1 2 2 2 3 3 3 2 3
6 5 4 3 3 2 2 2 2 3 3 3 7 11 11 11 11 9 9 8 6 6 4 4 3 3 2 2 1 1 1 1 1 0 0 1 1 2 2 3 3 3 3
5 3 3 3 3 3 3 3 3 4 3 3 3 5 9 10 13 14 11 6 4 4 4 4 3 3 2 2 2 2 1 1 1 1 0 0 1 1 2 2 2 3 3
3 2 3 3 3 3 4 4 4 4 4 3 3 3 3 4 5 6 7 5 5 4 3 3 3 3 2 2 2 2 2 1 1 1 0 0 0 1 2 2 3 3 3
1 2 3 3 3 4 4 4 4 4 4 4 3 4 7 4 5 5 4 4 4 3 3 3 2 3 2 2 2 2 1 1 1 1 0 0 0 0 1 1 2 2 2
1 2 3 4 4 4 5 4 4 5 5 4 3 5 9 6 4 4 3 3 2 2 2 2 1 1 1 1 1 1 1 1 1 1 1 1 1 1 1 1 1 2 2
3 4 5 5 5 6 6 5 5 5 4 4 3 3 3 3 3 3 2 1 1 2 2 2 1 1 2 1 1 1 1 2 2 2 2 1 1 1 2 2 2 2 3
3 5 6 5 5 5 5 5 4 4 4 3 3 3 2 2 2 1 1 1 1 1 1 1 1 2 3 2 2 2 2 3 2 2 3 3 3 2 2 2 3 3 3
4 5 5 5 5 5 4 4 4 3 3 2 2 2 1 1 1 1 1 1 1 2 2 2 2 2 4 4 4 4 5 6 4 3 3 3 3 3 3 3 3 3 3
4 5 5 4 4 4 4 3 3 2 2 1 1 1 0 0 1 1 1 2 2 3 3 3 4 4 5 4 6 7 7 8 7 7 4 3 4 4 4 3 4 3 4
Wind_Direction
233 230 233 236 231 230 234 238 235 230 219 217 214 216 219 221 219 224 230 225 226 227 223 224 227 225 225 222 216 213 217 217 239 221 182 178 187 194 196 195 195 201 211
241 239 242 245 240 238 243 244 235 232 224 219 214 216 220 221 219 223 229 228 231 231 228 227 229 225 227 225 220 219 218 213 219 217 180 179 191 193 187 189 192 196 200
251 247 252 251 244 244 247 247 239 235 232 223 217 220 221 220 219 222 228 230 233 236 233 230 231 227 230 226 221 221 218 209 201 193 180 169 166 177 177 183 185 187 200
269 257 257 256 252 252 254 252 244 237 236 231 224 224 223 219 219 221 225 230 235 240 239 238 236 231 232 228 224 221 210 198 189 183 172 169 160 159 172 181 190 195 203
289 271 265 268 270 267 264 260 255 246 242 238 231 228 223 219 220 218 222 227 234 242 244 243 243 241 237 230 223 215 200 197 190 189 180 170 169 170 186 180 190 185 205
303 287 287 288 282 272 268 266 262 255 248 239 232 227 224 225 225 221 218 224 231 239 248 249 246 241 241 236 230 218 203 196 193 188 187 187 184 178 168 172 173 172 207
312 305 303 298 289 282 277 270 262 257 250 241 237 228 229 233 231 227 223 219 226 234 241 247 247 237 229 229 231 225 214 210 200 188 191 189 178 174 171 175 183 187 195
316 313 312 306 296 293 285 273 268 258 248 245 240 230 231 239 238 235 229 224 229 234 236 238 242 236 215 207 203 203 199 200 200 195 189 181 174 172 177 178 181 176 150
311 310 310 304 297 294 285 279 271 258 251 242 239 228 227 241 239 239 229 216 229 238 238 235 233 228 219 208 196 192 183 182 194 184 177 175 175 173 166 153 156 163 196
308 306 306 299 289 285 280 277 266 246 243 227 231 227 228 248 257 249 235 206 225 232 230 224 224 216 209 204 194 186 184 174 166 172 176 178 175 179 180 177 174 180 181
305 303 303 300 292 287 287 278 255 223 177 139 114 67 49 338 303 282 257 203 197 193 194 196 210 212 212 212 200 185 188 171 170 169 167 167 164 173 184 184 185 188 192
301 298 298 300 298 295 288 293 277 157 136 120 100 60 28 12 358 328 294 215 178 171 183 185 203 213 216 218 208 195 193 178 162 164 169 175 178 185 187 185 187 192 192
296 292 292 295 297 293 271 252 235 142 136 126 114 87 16 3 3 10 358 170 165 155 168 179 187 204 209 214 210 197 184 171 166 176 184 189 185 177 158 150 145 134 103
284 283 283 284 290 302 304 268 179 164 143 136 131 116 68 18 5 359 13 96 132 134 133 149 175 188 177 151 172 191 176 170 176 183 178 163 146 151 165 164 166 161 153
276 270 268 265 262 264 312 69 100 14 160 145 129 123 120 81 18 75 98 115 135 134 119 98 86 82 99 98 107 122 138 154 175 173 163 163 167 171 174 163 161 164 182
273 263 251 243 239 212 137 90 82 87 84 86 91 95 75 76 76 93 103 112 126 133 112 98 91 84 88 102 117 97 88 132 165 165 169 176 180 181 177 167 165 180 196
256 252 235 217 202 189 163 136 114 81 69 65 63 65 67 70 68 76 92 92 89 99 85 80 77 73 66 62 65 80 106 54 114 160 177 180 179 179 176 177 179 186 197
253 237 215 198 181 170 156 130 117 114 91 43 38 51 58 63 62 64 79 80 61 53 58 64 59 51 49 49 42 38 39 39 48 65 154 176 176 174 178 185 187 190 192
254 226 189 169 156 146 134 118 106 97 91 72 43 34 35 53 55 52 56 61 71 61 54 54 48 44 39 35 31 29 32 31 32 38 50 163 174 171 188 193 189 187 180
252 194 159 149 139 132 127 122 116 110 100 81 59 33 15 39 48 38 40 48 60 58 50 49 40 37 35 34 32 33 34 31 28 23 5 351 238 193 197 196 189 185 192
231 141 127 124 121 119 118 117 116 112 104 87 59 62 82 77 73 63 54 48 50 49 42 39 35 30 27 26 27 27 27 10 360 341 305 274 201 217 213 194 187 182 176
157 128 121 118 110 104 102 100 101 103 102 93 65 53 70 73 72 70 62 50 36 31 25 36 35 22 15 13 10 9 354 322 306 299 279 253 224 208 196 188 183 179 176
131 121 109 102 103 104 99 96 99 102 100 94 87 75 68 71 72 71 63 41 26 19 11 18 15 357 351 348 343 324 275 267 261 246 237 234 227 217 205 206 199 194 197
112 112 111 109 105 104 106 104 102 104 105 102 94 88 85 82 74 64 47 10 0 349 340 335 317 306 311 312 300 287 268 262 249 234 223 221 222 220 212 214 213 211 210
95 102 105 107 107 107 107 106 104 104 103 103 102 96 84 74 58 7 333 321 315 303 300 294 284 287 290 289 284 276 277 279 263 229 215 211 219 218 214 216 213 209 206
81 86 89 92 95 101 107 111 110 110 111 110 104 95 83 314 289 288 291 289 288 286 285 281 277 280 282 280 278 277 270 265 251 228 202 201 210 217 212 217 215 211 207